Regional Weather Roundup
Issued by NWS Bismarck, ND

Home | Current Version | Previous Version | Text Only | Print | Product List | Glossary On
Versions: 1 2 3 4 5 6 7 8 9 10 11 12 13 14 15 16 17 18 19 20 21 22 23 24 25 26 27 28 29 30 31 32 33 34 35 36 37 38 39 40 41 42 43 44 45 46 47 48 49 50
000
ASUS43 KBIS 201010
RWRBIS

NWR BROADCAST TEXT
NATIONAL WEATHER SERVICE BISMARCK ND
500 AM CDT SUN APR 20 2014

NOTE: "FAIR" INDICATES FEW OR NO CLOUDS BELOW 12,000 FEET WITH NO
SIGNIFICANT WEATHER AND/OR OBSTRUCTIONS TO VISIBILITY.


CITY           SKY/WX    TMP DP  RH WIND       PRES   REMARKS
WILLISTON      CLEAR     30  27  88 CALM      29.88F
MINOT          CLEAR     34  30  85 S6        29.93F
MINOT AFB      CLEAR     33  33  98 SE3       29.93S
BISMARCK       CLEAR     32  32 100 NE6       29.98F
DICKINSON      CLEAR     35  23  61 S8        29.89F
GARRISON         N/A     32  28  85 E3        29.94F
HETTINGER ARPT CLEAR     28  22  78 CALM      29.94F
JAMESTOWN      CLEAR     34  33  96 S5        29.99F
CARRINGTON     FAIR      32  32 100 S10       30.00S
CROSBY         FAIR      32  32 100 S6        29.89F
HARVEY         FAIR      32  32 100 SE6       29.98S
HAZEN          FAIR      39  32  75 CALM      29.95S
LINTON         FAIR      32  32 100 E9        29.98F
MANDAN         FAIR      37  32  81 SE6       29.97F
OAKES          FAIR      32  32 100 E3        30.02R
RUGBY          FAIR      27  27 100 E7        29.96F WCI  19
STANLEY        FAIR      34  34 100 SE6       29.91F
TIOGA          FAIR      30  30 100 NE3       29.93F
WATFORD CITY   FAIR      27  27 100 CALM      29.89R
$$

CITY           SKY/WX    TMP DP  RH WIND       PRES   REMARKS
GRAND FORKS    CLEAR     31  28  89 CALM      30.02R
GRAND FORKS AF CLEAR     31  30  99 W5        30.02R
DEVILS LAKE    CLEAR     30  25  80 CALM      29.98S
FARGO          CLEAR     34  31  88 CALM      30.02S
CANDO          FAIR      28  27  93 E3        30.00R
CAVALIER       FAIR      32  28  86 W5        30.02R
GRAFTON        FAIR      28  28 100 NW3       30.02R
GWINNER        SUNNY     37  37 100 SE5       30.03S
LANGDON        FAIR      27  25  93 CALM      29.99S
ROLLA          FAIR      27  27 100 CALM      29.98F
WALHALLA       FAIR      30  30 100 CALM      30.02R
$$

CITY           SKY/WX    TMP DP  RH WIND       PRES   REMARKS
ABERDEEN       CLEAR     34  31  88 E8        30.01S
MOBRIDGE       CLEAR     37  31  78 E8        29.96S
BUFFALO          N/A     43  27  53 S5        29.86F
RAPID CITY     CLEAR     40  30  67 S7        29.92F
GLASGOW        MOCLDY    38  30  73 E10       29.80F
SIDNEY         PTCLDY    30  28  93 CALM      29.89F
WOLF POINT     MOCLDY    32  26  78 NE7       29.85F
GLENDIVE       CLEAR     37  21  52 CALM      29.88F
MILES CITY     PTCLDY    44  32  62 S10       29.84S
BAKER          CLEAR     36  26  67 E9        29.90F
$$

CITY           SKY/WX    TMP DP  RH WIND       PRES   REMARKS
BILLINGS       CLOUDY    49  26  41 SW12      29.84S
GREAT FALLS    CLOUDY    46  31  55 W22G30    29.94R
REGINA         MOCLDY    28  28 100 E7        29.89F
ESTEVAN        CLEAR     30  28  93 E8        29.90F
$$




USA.gov is the U.S. government's official web portal to all federal, state and local government web resources and services.